Regional Weather Roundup
Issued by NWS Memphis, TN

Home | Current Version | Previous Version | Text Only | Print | Product List | Glossary On
Versions: 1 2 3 4 5 6 7 8 9 10 11 12 13 14 15 16 17 18 19 20 21 22 23 24 25 26 27 28 29 30 31 32 33 34 35 36 37 38 39 40 41 42 43 44 45 46 47 48 49 50
789
ASUS44 KMEG 061000
RWRMEG
MEMPHIS CWA HOURLY WEATHER ROUNDUP
NATIONAL WEATHER SERVICE MEMPHIS TN
500 AM CDT FRI MAY 06 2016

...WEST TENNESSEE...

CITY           SKY/WX    TMP DP  RH WIND       PRES   REMARKS
MEMPHIS INTL   PTCLDY    51  44  77 CALM      30.06R
NWS MEMPHIS      N/A     46 N/A N/A MISG        N/A
JACKSON        CLEAR     43  41  93 SW3       30.03R
LEXINGTON      CLEAR     39  39 100 CALM      30.00R
DYERSBURG      CLEAR     46  45  93 W5        30.04R
UNION CITY     CLEAR     45  45 100 CALM      30.02R


...EASTERN ARKANSAS...

CITY           SKY/WX    TMP DP  RH WIND       PRES   REMARKS
JONESBORO      CLEAR     50  45  83 CALM      30.06S
WEST MEMPHIS   CLEAR     47  46  97 CALM      30.05S
BATESVILLE     CLEAR     45  41  87 NW5       30.09R
WALNUT RIDGE   CLEAR     48  41  76 W5        30.07S
BLYTHEVILLE    CLEAR     50  46  86 NW6       30.06R
SEARCY         CLEAR     46  45  93 CALM      30.10S
STUTTGART      CLEAR     52  43  71 N7        30.08R
PINE BLUFF     CLEAR     50  47  89 CALM      30.08R
MONTICELLO     CLEAR     49  46  90 CALM      30.06R


...NORTH MISSISSIPPI...

CITY           SKY/WX    TMP DP  RH WIND       PRES   REMARKS
TUPELO         CLEAR     47  41  80 CALM      30.03R
OLIVE BRANCH   CLEAR     46  46 100 CALM      30.06S
TUNICA         CLEAR     45  43  93 CALM      30.07S
GREENWOOD      CLEAR     46  43  89 CALM      30.05R
STARKVILLE     FAIR      43  43 100 CALM      30.03R
GOLDEN TRIANGL   N/A     46  43  87 W5        30.02R


...SOUTHEAST MISSOURI...

CITY           SKY/WX    TMP DP  RH WIND       PRES   REMARKS
KENNETT        FAIR      50  46  87 NW5       30.05R
WEST PLAINS    CLEAR     43  36  76 CALM      30.09R
POPLAR BLUFF   CLEAR     48  43  82 CALM      30.05S
CAPE GIRARDEAU CLEAR     43  42  97 W3        30.05R


...NORTHWEST ALABAMA...

CITY           SKY/WX    TMP DP  RH WIND       PRES   REMARKS
MUSCLE SHOALS  CLEAR     48  42  80 W6        30.02R


...MIDDLE TENNESSEE...

CITY           SKY/WX    TMP DP  RH WIND       PRES   REMARKS
NASHVILLE      CLEAR     48  43  82 W5        29.98R
CLARKSVILLE    CLEAR     45  42  89 NW5       29.99S
COLUMBIA       CLEAR    N/A N/A N/A CALM      29.98R


...WESTERN KENTUCKY...

CITY           SKY/WX    TMP DP  RH WIND       PRES   REMARKS
PADUCAH        CLEAR     46  43  89 W3        30.02R


...CENTRAL ARKANSAS...

CITY           SKY/WX    TMP DP  RH WIND       PRES   REMARKS
LITTLE ROCK    CLEAR     52  46  80 W3        30.08S


SKY/WX REPORTED AS FAIR MEANS FEW OR NO CLOUDS BELOW
12 THOUSAND FEET.





USA.gov is the U.S. government's official web portal to all federal, state and local government web resources and services.